Location: Ravensburg
(47.7866°N, 9.6124°E)
Time: 03:26:28
(UTC+02:00)

Gurwin Techsat 1B - Pass Details

Date: 16 March 2026
Orbit: 809 x 812 km, 99.0° (Epoch: 14 April)

Event Time Altitude Azimuth Distance (km) Brightness Sun altitude
Rises 04:40:43 0° 23° (NNE) 3,341 12.5 -19.4°
Reaches altitude 10° 04:43:23 10° 35° (NE) 2,404 11.8 -19.0°
Maximum altitude 04:47:58 29° 95° (E) 1,451 10.6 -18.2°
Drops below altitude 10° 04:52:31 10° 155° (SSE) 2,388 11.1 -17.5°
Sets 04:55:08 0° 166° (SSE) 3,314 11.8 -17.1°
